contact:dominique.lefevre@mio.osupytheas.fr, maurice.libes@osupytheas.fr, didier.mallarino@osupytheas.fr
Project:EMSO http://www.emso-fr.org/EMSO-France
Depth: 2436.0 m
Title:EMSO Ligure Ouest : Data MII capteur CSTAR
DateTime,Latitude,Longitude,Instrument_Serial,Reference_Counts,Signal_Counts,Corrected_Signal_raw_counts,Calculated_Beam_c_inverse_meters,Internal_thermistor_counts
DateTime,Latitude,Longitude,Instrument_Serial,Reference_Counts,Signal_Counts,Corrected_Signal_raw_counts,Calculated_Beam_c_inverse_meters,Internal_thermistor_counts
2022-03-18T00:02:29,42.805,6.029,CST-1368DR,4843,5755,12681,0.833,551
2022-03-18T00:05:31,42.805,6.029,CST-1368DR,4842,5770,12716,0.822,551
2022-03-18T00:08:33,42.805,6.029,CST-1368DR,4843,5767,12707,0.825,551
2022-03-18T00:11:34,42.805,6.029,CST-1368DR,4843,5765,12704,0.826,551
2022-03-18T00:14:36,42.805,6.029,CST-1368DR,4842,5770,12718,0.821,551
2022-03-18T00:17:37,42.805,6.029,CST-1368DR,4843,5766,12706,0.825,551
2022-03-18T00:20:39,42.805,6.029,CST-1368DR,4842,5766,12708,0.824,551
2022-03-18T00:23:40,42.805,6.029,CST-1368DR,4842,5764,12704,0.826,551
2022-03-18T00:26:42,42.805,6.029,CST-1368DR,4842,5766,12709,0.824,551
2022-03-18T00:29:44,42.805,6.029,CST-1368DR,4842,5766,12707,0.825,551
2022-03-18T00:32:45,42.805,6.029,CST-1368DR,4842,5769,12715,0.822,551
2022-03-18T00:35:47,42.805,6.029,CST-1368DR,4842,5772,12721,0.820,551
2022-03-18T00:38:48,42.805,6.029,CST-1368DR,4842,5772,12722,0.820,551
2022-03-18T00:41:50,42.805,6.029,CST-1368DR,4842,5773,12723,0.820,551
2022-03-18T00:44:51,42.805,6.029,CST-1368DR,4842,5770,12716,0.822,551
2022-03-18T00:47:53,42.805,6.029,CST-1368DR,4842,5768,12712,0.823,551
2022-03-18T00:50:55,42.805,6.029,CST-1368DR,4842,5762,12698,0.827,551
2022-03-18T00:53:56,42.805,6.029,CST-1368DR,4842,5769,12715,0.822,551
2022-03-18T00:56:58,42.805,6.029,CST-1368DR,4842,5761,12697,0.828,551
2022-03-18T00:59:59,42.805,6.029,CST-1368DR,4842,5776,12730,0.817,551
2022-03-18T01:03:01,42.805,6.029,CST-1368DR,4842,5767,12709,0.824,551
2022-03-18T01:06:03,42.805,6.029,CST-1368DR,4842,5770,12717,0.821,551
2022-03-18T01:09:04,42.805,6.029,CST-1368DR,4842,5768,12713,0.823,551
2022-03-18T01:12:06,42.805,6.029,CST-1368DR,4842,5768,12713,0.823,551
2022-03-18T01:15:07,42.805,6.029,CST-1368DR,4842,5762,12699,0.827,551
2022-03-18T01:18:09,42.805,6.029,CST-1368DR,4842,5763,12702,0.826,551
2022-03-18T01:21:10,42.805,6.029,CST-1368DR,4842,5766,12707,0.825,551
2022-03-18T01:24:12,42.805,6.029,CST-1368DR,4842,5772,12720,0.820,551
2022-03-18T01:27:14,42.805,6.029,CST-1368DR,4842,5761,12697,0.828,551
2022-03-18T01:30:15,42.805,6.029,CST-1368DR,4842,5773,12723,0.820,551
2022-03-18T01:33:17,42.805,6.029,CST-1368DR,4842,5769,12714,0.822,551
2022-03-18T01:36:18,42.805,6.029,CST-1368DR,4842,5774,12725,0.819,551
2022-03-18T01:39:20,42.805,6.029,CST-1368DR,4842,5771,12719,0.821,551
2022-03-18T01:42:21,42.805,6.029,CST-1368DR,4842,5766,12708,0.824,551
2022-03-18T01:45:23,42.805,6.029,CST-1368DR,4842,5759,12693,0.829,551
2022-03-18T01:48:25,42.805,6.029,CST-1368DR,4842,5774,12725,0.819,551
2022-03-18T01:51:26,42.805,6.029,CST-1368DR,4842,5769,12714,0.822,551
2022-03-18T01:54:28,42.805,6.029,CST-1368DR,4842,5771,12720,0.820,551
2022-03-18T01:57:29,42.805,6.029,CST-1368DR,4842,5764,12704,0.826,551
2022-03-18T02:00:31,42.805,6.029,CST-1368DR,4842,5764,12704,0.826,551
2022-03-18T02:03:33,42.805,6.029,CST-1368DR,4842,5758,12691,0.830,551
2022-03-18T02:06:34,42.805,6.029,CST-1368DR,4842,5767,12710,0.824,551
2022-03-18T02:09:36,42.805,6.029,CST-1368DR,4842,5768,12712,0.823,551
2022-03-18T02:12:37,42.805,6.029,CST-1368DR,4842,5769,12714,0.822,551
2022-03-18T02:15:39,42.805,6.029,CST-1368DR,4842,5758,12690,0.830,551
2022-03-18T02:18:40,42.805,6.029,CST-1368DR,4842,5772,12721,0.820,551
2022-03-18T02:21:42,42.805,6.029,CST-1368DR,4842,5757,12687,0.831,551
2022-03-18T02:24:44,42.805,6.029,CST-1368DR,4842,5773,12724,0.819,551
2022-03-18T02:27:45,42.805,6.029,CST-1368DR,4842,5746,12664,0.838,551
2022-03-18T02:30:47,42.805,6.029,CST-1368DR,4842,5753,12679,0.833,551
2022-03-18T02:33:48,42.805,6.029,CST-1368DR,4842,5756,12687,0.831,551
2022-03-18T02:36:50,42.805,6.029,CST-1368DR,4842,5770,12716,0.822,551
2022-03-18T02:39:51,42.805,6.029,CST-1368DR,4842,5760,12696,0.828,551
2022-03-18T02:42:53,42.805,6.029,CST-1368DR,4842,5760,12695,0.828,551
2022-03-18T02:45:55,42.805,6.029,CST-1368DR,4842,5765,12705,0.825,551
2022-03-18T02:48:56,42.805,6.029,CST-1368DR,4842,5758,12689,0.830,551
2022-03-18T02:51:58,42.805,6.029,CST-1368DR,4842,5733,12635,0.847,551
2022-03-18T02:54:59,42.805,6.029,CST-1368DR,4842,5756,12687,0.831,551
2022-03-18T02:58:01,42.805,6.029,CST-1368DR,4843,5798,12776,0.803,551
2022-03-18T03:01:03,42.805,6.029,CST-1368DR,4842,5779,12736,0.815,551
2022-03-18T03:04:04,42.805,6.029,CST-1368DR,4842,5764,12704,0.826,551
2022-03-18T03:07:06,42.805,6.029,CST-1368DR,4842,5779,12736,0.815,551
2022-03-18T03:10:07,42.805,6.029,CST-1368DR,4842,5774,12725,0.819,551
2022-03-18T03:13:09,42.805,6.029,CST-1368DR,4842,5778,12734,0.816,551
2022-03-18T03:16:10,42.805,6.029,CST-1368DR,4842,5787,12753,0.810,551
2022-03-18T03:19:12,42.805,6.029,CST-1368DR,4842,5771,12719,0.821,551
2022-03-18T03:22:14,42.805,6.029,CST-1368DR,4842,5783,12746,0.812,551
2022-03-18T03:25:15,42.805,6.029,CST-1368DR,4842,5769,12714,0.822,551
2022-03-18T03:28:17,42.805,6.029,CST-1368DR,4842,5781,12742,0.814,551
2022-03-18T03:31:18,42.805,6.029,CST-1368DR,4842,5780,12739,0.815,551
2022-03-18T03:34:20,42.805,6.029,CST-1368DR,4842,5784,12747,0.812,551
2022-03-18T03:37:21,42.805,6.029,CST-1368DR,4842,5783,12746,0.812,551
2022-03-18T03:40:23,42.805,6.029,CST-1368DR,4842,5768,12713,0.823,551
2022-03-18T03:43:25,42.805,6.029,CST-1368DR,4842,5786,12752,0.810,551
2022-03-18T03:46:26,42.805,6.029,CST-1368DR,4842,5777,12732,0.817,551
2022-03-18T03:49:28,42.805,6.029,CST-1368DR,4842,5777,12732,0.817,551
2022-03-18T03:52:29,42.805,6.029,CST-1368DR,4842,5773,12723,0.820,551
2022-03-18T03:55:31,42.805,6.029,CST-1368DR,4842,5777,12731,0.817,551
2022-03-18T03:58:33,42.805,6.029,CST-1368DR,4842,5782,12742,0.814,551
2022-03-18T04:01:34,42.805,6.029,CST-1368DR,4842,5766,12708,0.824,551
2022-03-18T04:04:36,42.805,6.029,CST-1368DR,4842,5778,12734,0.816,551
2022-03-18T04:07:37,42.805,6.029,CST-1368DR,4842,5778,12734,0.816,551
2022-03-18T04:10:39,42.805,6.029,CST-1368DR,4842,5789,12759,0.808,551
2022-03-18T04:13:40,42.805,6.029,CST-1368DR,4842,5791,12764,0.807,551
2022-03-18T04:16:42,42.805,6.029,CST-1368DR,4842,5768,12713,0.823,551
2022-03-18T04:19:44,42.805,6.029,CST-1368DR,4842,5784,12747,0.812,551
2022-03-18T04:22:45,42.805,6.029,CST-1368DR,4842,5772,12721,0.820,551
2022-03-18T04:25:47,42.805,6.029,CST-1368DR,4842,5787,12755,0.809,551
2022-03-18T04:28:48,42.805,6.029,CST-1368DR,4842,5787,12754,0.810,551
2022-03-18T04:31:50,42.805,6.029,CST-1368DR,4842,5780,12738,0.815,551
2022-03-18T04:34:51,42.805,6.029,CST-1368DR,4842,5780,12739,0.815,551
2022-03-18T04:37:53,42.805,6.029,CST-1368DR,4842,5800,12782,0.801,551
2022-03-18T04:40:55,42.805,6.029,CST-1368DR,4842,5792,12766,0.806,551
2022-03-18T04:43:56,42.805,6.029,CST-1368DR,4842,5785,12751,0.811,551
2022-03-18T04:46:58,42.805,6.029,CST-1368DR,4842,5779,12736,0.815,551
2022-03-18T04:49:59,42.805,6.029,CST-1368DR,4842,5787,12754,0.810,551
2022-03-18T04:53:01,42.805,6.029,CST-1368DR,4842,5755,12684,0.832,551
2022-03-18T04:56:03,42.805,6.029,CST-1368DR,4842,5774,12726,0.819,551
2022-03-18T04:59:04,42.805,6.029,CST-1368DR,4842,5779,12736,0.815,551
2022-03-18T05:02:06,42.805,6.029,CST-1368DR,4842,5795,12773,0.804,551
2022-03-18T05:05:07,42.805,6.029,CST-1368DR,4842,5771,12719,0.821,551
2022-03-18T05:08:09,42.805,6.029,CST-1368DR,4842,5790,12762,0.807,551
2022-03-18T05:11:10,42.805,6.029,CST-1368DR,4842,5783,12746,0.812,551
2022-03-18T05:14:12,42.805,6.029,CST-1368DR,4842,5795,12773,0.804,551
2022-03-18T05:17:14,42.805,6.029,CST-1368DR,4842,5776,12730,0.817,551
2022-03-18T05:20:15,42.805,6.029,CST-1368DR,4842,5787,12755,0.809,551
2022-03-18T05:23:17,42.805,6.029,CST-1368DR,4842,5767,12710,0.824,551
2022-03-18T05:26:18,42.805,6.029,CST-1368DR,4842,5786,12752,0.810,551
2022-03-18T05:29:20,42.805,6.029,CST-1368DR,4842,5783,12746,0.812,551
2022-03-18T05:32:21,42.805,6.029,CST-1368DR,4842,5775,12727,0.818,551
2022-03-18T05:35:23,42.805,6.029,CST-1368DR,4842,5776,12730,0.817,551
2022-03-18T05:38:25,42.805,6.029,CST-1368DR,4842,5782,12742,0.814,551
2022-03-18T05:41:26,42.805,6.029,CST-1368DR,4842,5773,12724,0.819,551
2022-03-18T05:44:28,42.805,6.029,CST-1368DR,4842,5788,12757,0.809,551
2022-03-18T05:47:29,42.805,6.029,CST-1368DR,4842,5790,12760,0.808,551
2022-03-18T05:50:31,42.805,6.029,CST-1368DR,4842,5777,12732,0.817,551
2022-03-18T05:53:33,42.805,6.029,CST-1368DR,4842,5784,12747,0.812,551
2022-03-18T05:56:34,42.805,6.029,CST-1368DR,4842,5776,12730,0.817,551
2022-03-18T05:59:36,42.805,6.029,CST-1368DR,4842,5774,12725,0.819,551
2022-03-18T06:02:37,42.805,6.029,CST-1368DR,4842,5775,12728,0.818,551
2022-03-18T06:05:39,42.805,6.029,CST-1368DR,4842,5755,12684,0.832,551
2022-03-18T06:08:40,42.805,6.029,CST-1368DR,4842,5797,12777,0.803,551
2022-03-18T06:11:42,42.805,6.029,CST-1368DR,4842,5779,12737,0.815,551
2022-03-18T06:14:44,42.805,6.029,CST-1368DR,4842,5773,12723,0.820,551
2022-03-18T06:17:45,42.805,6.029,CST-1368DR,4842,5784,12747,0.812,551
2022-03-18T06:20:47,42.805,6.029,CST-1368DR,4842,5787,12753,0.810,551
2022-03-18T06:23:48,42.805,6.029,CST-1368DR,4842,5793,12768,0.805,551
2022-03-18T06:26:50,42.805,6.029,CST-1368DR,4842,5791,12762,0.807,551
2022-03-18T06:29:52,42.805,6.029,CST-1368DR,4842,5781,12742,0.814,551
2022-03-18T06:32:53,42.805,6.029,CST-1368DR,4842,5791,12762,0.807,551
2022-03-18T06:35:55,42.805,6.029,CST-1368DR,4842,5787,12755,0.809,551
2022-03-18T06:38:56,42.805,6.029,CST-1368DR,4842,5788,12757,0.809,551
2022-03-18T06:41:58,42.805,6.029,CST-1368DR,4842,5798,12779,0.802,551
2022-03-18T06:44:59,42.805,6.029,CST-1368DR,4842,5798,12779,0.802,551
2022-03-18T06:48:01,42.805,6.029,CST-1368DR,4842,5779,12737,0.815,551
2022-03-18T06:51:03,42.805,6.029,CST-1368DR,4842,5799,12780,0.802,551
2022-03-18T06:54:04,42.805,6.029,CST-1368DR,4842,5775,12727,0.818,551
2022-03-18T06:57:06,42.805,6.029,CST-1368DR,4842,5778,12735,0.816,551
2022-03-18T07:00:07,42.805,6.029,CST-1368DR,4842,5793,12768,0.805,551
2022-03-18T07:03:09,42.805,6.029,CST-1368DR,4842,5782,12743,0.813,551
2022-03-18T07:06:10,42.805,6.029,CST-1368DR,4842,5787,12755,0.809,551
2022-03-18T07:09:12,42.805,6.029,CST-1368DR,4842,5786,12752,0.810,551
2022-03-18T07:12:14,42.805,6.029,CST-1368DR,4842,5781,12742,0.814,551
2022-03-18T07:15:15,42.805,6.029,CST-1368DR,4842,5801,12784,0.800,551
2022-03-18T07:18:17,42.805,6.029,CST-1368DR,4842,5798,12779,0.802,551
2022-03-18T07:21:18,42.805,6.029,CST-1368DR,4842,5786,12752,0.810,550
2022-03-18T07:24:20,42.805,6.029,CST-1368DR,4842,5792,12766,0.806,551
2022-03-18T07:27:22,42.805,6.029,CST-1368DR,4842,5794,12770,0.805,551
2022-03-18T07:30:23,42.805,6.029,CST-1368DR,4842,5791,12762,0.807,551
2022-03-18T07:33:25,42.805,6.029,CST-1368DR,4842,5792,12766,0.806,551
2022-03-18T07:36:26,42.805,6.029,CST-1368DR,4842,5786,12751,0.811,551
2022-03-18T07:39:28,42.805,6.029,CST-1368DR,4842,5780,12739,0.815,551
2022-03-18T07:42:29,42.805,6.029,CST-1368DR,4842,5784,12747,0.812,551
2022-03-18T07:45:31,42.805,6.029,CST-1368DR,4842,5777,12732,0.817,551
2022-03-18T07:48:33,42.805,6.029,CST-1368DR,4842,5792,12766,0.806,551
2022-03-18T07:51:34,42.805,6.029,CST-1368DR,4842,5781,12742,0.814,551
2022-03-18T07:54:36,42.805,6.029,CST-1368DR,4842,5779,12737,0.815,551
2022-03-18T07:57:37,42.805,6.029,CST-1368DR,4842,5796,12774,0.804,551
2022-03-18T08:00:39,42.805,6.029,CST-1368DR,4842,5791,12764,0.807,551
2022-03-18T08:03:40,42.805,6.029,CST-1368DR,4842,5788,12756,0.809,551
2022-03-18T08:06:42,42.805,6.029,CST-1368DR,4842,5792,12764,0.807,551
2022-03-18T08:09:44,42.805,6.029,CST-1368DR,4842,5794,12769,0.805,551
2022-03-18T08:12:45,42.805,6.029,CST-1368DR,4842,5796,12774,0.804,551
2022-03-18T08:15:47,42.805,6.029,CST-1368DR,4842,5788,12756,0.809,551
2022-03-18T08:18:48,42.805,6.029,CST-1368DR,4842,5794,12769,0.805,551
2022-03-18T08:21:50,42.805,6.029,CST-1368DR,4842,5793,12767,0.806,551
2022-03-18T08:24:52,42.805,6.029,CST-1368DR,4842,5797,12776,0.803,551
2022-03-18T08:27:53,42.805,6.029,CST-1368DR,4842,5796,12774,0.804,551
2022-03-18T08:30:55,42.805,6.029,CST-1368DR,4842,5794,12769,0.805,551
2022-03-18T08:33:56,42.805,6.029,CST-1368DR,4842,5782,12744,0.813,551
2022-03-18T08:36:58,42.805,6.029,CST-1368DR,4842,5793,12768,0.805,551
2022-03-18T08:39:59,42.805,6.029,CST-1368DR,4842,5787,12754,0.810,551
2022-03-18T08:43:01,42.805,6.029,CST-1368DR,4842,5775,12727,0.818,551
2022-03-18T08:46:03,42.805,6.029,CST-1368DR,4842,5789,12758,0.809,551
2022-03-18T08:49:04,42.805,6.029,CST-1368DR,4842,5780,12738,0.815,551
2022-03-18T08:52:06,42.805,6.029,CST-1368DR,4842,5783,12745,0.813,551
2022-03-18T08:55:07,42.805,6.029,CST-1368DR,4842,5779,12736,0.815,551
2022-03-18T08:58:09,42.805,6.029,CST-1368DR,4842,5770,12718,0.821,551
2022-03-18T09:01:11,42.805,6.029,CST-1368DR,4842,5784,12747,0.812,551
2022-03-18T09:04:12,42.805,6.029,CST-1368DR,4842,5782,12743,0.813,551
2022-03-18T09:07:14,42.805,6.029,CST-1368DR,4842,5789,12758,0.809,551
2022-03-18T09:10:15,42.805,6.029,CST-1368DR,4842,5780,12738,0.815,551
2022-03-18T09:13:17,42.805,6.029,CST-1368DR,4842,5789,12759,0.808,551
2022-03-18T09:16:18,42.805,6.029,CST-1368DR,4842,5786,12752,0.810,551
2022-03-18T09:19:20,42.805,6.029,CST-1368DR,4842,5800,12782,0.801,551
2022-03-18T09:22:22,42.805,6.029,CST-1368DR,4842,5794,12769,0.805,551
2022-03-18T09:25:23,42.805,6.029,CST-1368DR,4842,5774,12726,0.819,551
2022-03-18T09:28:25,42.805,6.029,CST-1368DR,4842,5789,12759,0.808,551
2022-03-18T09:31:26,42.805,6.029,CST-1368DR,4842,5783,12745,0.813,551
2022-03-18T09:34:28,42.805,6.029,CST-1368DR,4842,5790,12762,0.807,551
2022-03-18T09:37:29,42.805,6.029,CST-1368DR,4842,5791,12762,0.807,551
2022-03-18T09:40:31,42.805,6.029,CST-1368DR,4842,5788,12757,0.809,551
2022-03-18T09:43:33,42.805,6.029,CST-1368DR,4842,5782,12743,0.813,551
2022-03-18T09:46:34,42.805,6.029,CST-1368DR,4842,5785,12751,0.811,551
2022-03-18T09:49:36,42.805,6.029,CST-1368DR,4842,5779,12736,0.815,551
2022-03-18T09:52:37,42.805,6.029,CST-1368DR,4842,5776,12731,0.817,551
2022-03-18T09:55:39,42.805,6.029,CST-1368DR,4842,5778,12735,0.816,551
2022-03-18T09:58:41,42.805,6.029,CST-1368DR,4842,5782,12743,0.813,551
2022-03-18T10:01:42,42.805,6.029,CST-1368DR,4842,5780,12739,0.815,551
2022-03-18T10:04:44,42.805,6.029,CST-1368DR,4842,5789,12759,0.808,551
2022-03-18T10:07:45,42.805,6.029,CST-1368DR,4842,5778,12734,0.816,551
2022-03-18T10:10:47,42.805,6.029,CST-1368DR,4842,5779,12736,0.815,551
2022-03-18T10:13:48,42.805,6.029,CST-1368DR,4842,5780,12740,0.814,551
2022-03-18T10:16:50,42.805,6.029,CST-1368DR,4842,5776,12731,0.817,551
2022-03-18T10:19:52,42.805,6.029,CST-1368DR,4842,5784,12747,0.812,551
2022-03-18T10:22:53,42.805,6.029,CST-1368DR,4842,5783,12745,0.813,551
2022-03-18T10:25:55,42.805,6.029,CST-1368DR,4842,5780,12738,0.815,551
2022-03-18T10:28:56,42.805,6.029,CST-1368DR,4842,5781,12741,0.814,551
2022-03-18T10:31:58,42.805,6.029,CST-1368DR,4842,5780,12739,0.815,550
2022-03-18T10:34:59,42.805,6.029,CST-1368DR,4842,5782,12743,0.813,551
2022-03-18T10:38:01,42.805,6.029,CST-1368DR,4842,5779,12737,0.815,551
2022-03-18T10:41:03,42.805,6.029,CST-1368DR,4842,5782,12744,0.813,551
2022-03-18T10:44:04,42.805,6.029,CST-1368DR,4842,5782,12743,0.813,551
2022-03-18T10:47:06,42.805,6.029,CST-1368DR,4842,5780,12738,0.815,551
2022-03-18T10:50:07,42.805,6.029,CST-1368DR,4842,5782,12743,0.813,551
2022-03-18T10:53:09,42.805,6.029,CST-1368DR,4842,5785,12749,0.811,551
2022-03-18T10:56:11,42.805,6.029,CST-1368DR,4842,5780,12739,0.815,551
2022-03-18T10:59:12,42.805,6.029,CST-1368DR,4842,5777,12732,0.817,551
2022-03-18T11:02:14,42.805,6.029,CST-1368DR,4842,5780,12738,0.815,551
2022-03-18T11:05:15,42.805,6.029,CST-1368DR,4842,5779,12737,0.815,551
2022-03-18T11:08:17,42.805,6.029,CST-1368DR,4842,5779,12736,0.815,551
2022-03-18T11:11:18,42.805,6.029,CST-1368DR,4842,5777,12732,0.817,551
2022-03-18T11:14:20,42.805,6.029,CST-1368DR,4842,5780,12738,0.815,551
2022-03-18T11:17:22,42.805,6.029,CST-1368DR,4842,5781,12742,0.814,551
2022-03-18T11:20:23,42.805,6.029,CST-1368DR,4842,5775,12728,0.818,551
2022-03-18T11:23:25,42.805,6.029,CST-1368DR,4842,5778,12735,0.816,551
2022-03-18T11:26:26,42.805,6.029,CST-1368DR,4842,5785,12750,0.811,551
2022-03-18T11:29:28,42.805,6.029,CST-1368DR,4842,5778,12734,0.816,551
2022-03-18T11:32:29,42.805,6.029,CST-1368DR,4842,5779,12736,0.815,551
2022-03-18T11:35:31,42.805,6.029,CST-1368DR,4842,5780,12739,0.815,551
2022-03-18T11:38:33,42.805,6.029,CST-1368DR,4842,5782,12743,0.813,551
2022-03-18T11:41:34,42.805,6.029,CST-1368DR,4842,5781,12742,0.814,551
2022-03-18T11:44:36,42.805,6.029,CST-1368DR,4842,5783,12746,0.812,551
2022-03-18T11:47:37,42.805,6.029,CST-1368DR,4842,5783,12746,0.812,551
2022-03-18T11:50:39,42.805,6.029,CST-1368DR,4842,5785,12750,0.811,551
2022-03-18T11:53:40,42.805,6.029,CST-1368DR,4842,5784,12748,0.812,551
2022-03-18T11:56:42,42.805,6.029,CST-1368DR,4842,5802,12786,0.800,551
2022-03-18T11:59:44,42.805,6.029,CST-1368DR,4842,5790,12761,0.808,551
2022-03-18T12:02:45,42.805,6.029,CST-1368DR,4842,5790,12762,0.807,551
2022-03-18T12:05:47,42.805,6.029,CST-1368DR,4842,5790,12760,0.808,550
2022-03-18T12:08:48,42.805,6.029,CST-1368DR,4842,5788,12757,0.809,551
2022-03-18T12:11:50,42.805,6.029,CST-1368DR,4842,5791,12764,0.807,551
2022-03-18T12:14:52,42.805,6.029,CST-1368DR,4842,5798,12779,0.802,551
2022-03-18T12:17:53,42.805,6.029,CST-1368DR,4842,5792,12764,0.807,551
2022-03-18T12:20:55,42.805,6.029,CST-1368DR,4842,5785,12749,0.811,551
2022-03-18T12:23:56,42.805,6.029,CST-1368DR,4842,5791,12763,0.807,551
2022-03-18T12:26:58,42.805,6.029,CST-1368DR,4842,5796,12774,0.804,550
2022-03-18T12:29:59,42.805,6.029,CST-1368DR,4842,5786,12752,0.810,551
2022-03-18T12:33:01,42.805,6.029,CST-1368DR,4842,5787,12753,0.810,551
2022-03-18T12:36:03,42.805,6.029,CST-1368DR,4842,5793,12768,0.805,551
2022-03-18T12:39:04,42.805,6.029,CST-1368DR,4842,5793,12767,0.806,551
2022-03-18T12:42:06,42.805,6.029,CST-1368DR,4842,5796,12774,0.804,551
2022-03-18T12:45:07,42.805,6.029,CST-1368DR,4842,5789,12759,0.808,551
2022-03-18T12:48:09,42.805,6.029,CST-1368DR,4842,5800,12782,0.801,551
2022-03-18T12:51:10,42.805,6.029,CST-1368DR,4842,5797,12777,0.803,551
2022-03-18T12:54:12,42.805,6.029,CST-1368DR,4842,5798,12779,0.802,551
2022-03-18T12:57:14,42.805,6.029,CST-1368DR,4842,5803,12790,0.799,551
2022-03-18T13:00:15,42.805,6.029,CST-1368DR,4842,5799,12780,0.802,551
2022-03-18T13:03:17,42.805,6.029,CST-1368DR,4842,5795,12772,0.804,550
2022-03-18T13:06:18,42.805,6.029,CST-1368DR,4842,5795,12772,0.804,551
2022-03-18T13:09:20,42.805,6.029,CST-1368DR,4842,5803,12789,0.799,551
2022-03-18T13:12:22,42.805,6.029,CST-1368DR,4842,5796,12773,0.804,551
2022-03-18T13:15:23,42.805,6.029,CST-1368DR,4842,5803,12789,0.799,551
2022-03-18T13:18:25,42.805,6.029,CST-1368DR,4842,5797,12777,0.803,551
2022-03-18T13:21:26,42.805,6.029,CST-1368DR,4842,5800,12783,0.801,551
2022-03-18T13:24:28,42.805,6.029,CST-1368DR,4842,5803,12789,0.799,551
2022-03-18T13:27:29,42.805,6.029,CST-1368DR,4842,5803,12790,0.799,551
2022-03-18T13:30:31,42.805,6.029,CST-1368DR,4842,5800,12783,0.801,551
2022-03-18T13:33:33,42.805,6.029,CST-1368DR,4842,5801,12786,0.800,551
2022-03-18T13:36:34,42.805,6.029,CST-1368DR,4842,5805,12794,0.797,551
2022-03-18T13:39:36,42.805,6.029,CST-1368DR,4842,5799,12781,0.801,551
2022-03-18T13:42:37,42.805,6.029,CST-1368DR,4842,5799,12781,0.801,551
2022-03-18T13:45:39,42.805,6.029,CST-1368DR,4842,5796,12775,0.803,551
2022-03-18T13:48:40,42.805,6.029,CST-1368DR,4842,5801,12784,0.800,550
2022-03-18T13:51:42,42.805,6.029,CST-1368DR,4842,5801,12784,0.800,551
2022-03-18T13:54:44,42.805,6.029,CST-1368DR,4842,5805,12794,0.797,551
2022-03-18T13:57:45,42.805,6.029,CST-1368DR,4842,5804,12792,0.798,551
2022-03-18T14:00:47,42.805,6.029,CST-1368DR,4842,5803,12789,0.799,551
2022-03-18T14:03:48,42.805,6.029,CST-1368DR,4842,5801,12786,0.800,551
2022-03-18T14:06:50,42.805,6.029,CST-1368DR,4842,5806,12796,0.797,551
2022-03-18T14:09:52,42.805,6.029,CST-1368DR,4842,5798,12779,0.802,551
2022-03-18T14:12:53,42.805,6.029,CST-1368DR,4842,5799,12781,0.801,551
2022-03-18T14:15:55,42.805,6.029,CST-1368DR,4842,5801,12784,0.800,551
2022-03-18T14:18:56,42.805,6.029,CST-1368DR,4842,5805,12794,0.797,551
2022-03-18T14:21:58,42.805,6.029,CST-1368DR,4842,5803,12789,0.799,551
2022-03-18T14:24:59,42.805,6.029,CST-1368DR,4842,5800,12783,0.801,551
2022-03-18T14:28:01,42.805,6.029,CST-1368DR,4842,5804,12791,0.798,551
2022-03-18T14:31:03,42.805,6.029,CST-1368DR,4842,5797,12776,0.803,551
2022-03-18T14:34:04,42.805,6.029,CST-1368DR,4842,5799,12781,0.801,551
2022-03-18T14:37:06,42.805,6.029,CST-1368DR,4842,5792,12764,0.807,551
2022-03-18T14:40:07,42.805,6.029,CST-1368DR,4842,5801,12784,0.800,551
2022-03-18T14:43:09,42.805,6.029,CST-1368DR,4842,5801,12784,0.800,551
2022-03-18T14:46:10,42.805,6.029,CST-1368DR,4842,5802,12787,0.799,551
2022-03-18T14:49:12,42.805,6.029,CST-1368DR,4842,5802,12786,0.800,551
2022-03-18T14:52:14,42.805,6.029,CST-1368DR,4842,5791,12763,0.807,551
2022-03-18T14:55:15,42.805,6.029,CST-1368DR,4842,5782,12744,0.813,551
2022-03-18T14:58:17,42.805,6.029,CST-1368DR,4842,5776,12731,0.817,551
2022-03-18T15:01:18,42.805,6.029,CST-1368DR,4842,5800,12784,0.800,551
2022-03-18T15:04:20,42.805,6.029,CST-1368DR,4842,5790,12760,0.808,551
2022-03-18T15:07:22,42.805,6.029,CST-1368DR,4842,5779,12736,0.815,551
2022-03-18T15:10:23,42.805,6.029,CST-1368DR,4842,5799,12780,0.802,551
2022-03-18T15:13:25,42.805,6.029,CST-1368DR,4842,5793,12768,0.805,551
2022-03-18T15:16:26,42.805,6.029,CST-1368DR,4842,5795,12771,0.804,551
2022-03-18T15:19:28,42.805,6.029,CST-1368DR,4842,5800,12782,0.801,551
2022-03-18T15:22:29,42.805,6.029,CST-1368DR,4842,5793,12768,0.805,551
2022-03-18T15:25:31,42.805,6.029,CST-1368DR,4841,5782,12745,0.813,551
2022-03-18T15:28:33,42.805,6.029,CST-1368DR,4841,5769,12718,0.821,551
2022-03-18T15:31:34,42.805,6.029,CST-1368DR,4841,5786,12754,0.810,551
2022-03-18T15:34:36,42.805,6.029,CST-1368DR,4841,5785,12753,0.810,551
2022-03-18T15:37:37,42.805,6.029,CST-1368DR,4841,5775,12729,0.818,551
2022-03-18T15:40:39,42.805,6.029,CST-1368DR,4842,5793,12768,0.805,551
2022-03-18T15:43:40,42.805,6.029,CST-1368DR,4842,5793,12767,0.806,551
2022-03-18T15:46:42,42.805,6.029,CST-1368DR,4841,5792,12767,0.806,551
2022-03-18T15:49:44,42.805,6.029,CST-1368DR,4842,5799,12780,0.802,551
2022-03-18T15:52:45,42.805,6.029,CST-1368DR,4842,5786,12752,0.810,551
2022-03-18T15:55:47,42.805,6.029,CST-1368DR,4841,5779,12739,0.815,551
2022-03-18T15:58:48,42.805,6.029,CST-1368DR,4841,5784,12751,0.811,551
2022-03-18T16:01:50,42.805,6.029,CST-1368DR,4841,5770,12719,0.821,551
2022-03-18T16:04:52,42.805,6.029,CST-1368DR,4841,5777,12734,0.816,551
2022-03-18T16:07:53,42.805,6.029,CST-1368DR,4841,5780,12740,0.814,551
2022-03-18T16:10:55,42.805,6.029,CST-1368DR,4841,5780,12742,0.814,551
2022-03-18T16:13:56,42.805,6.029,CST-1368DR,4841,5782,12746,0.812,551
2022-03-18T16:16:58,42.805,6.029,CST-1368DR,4842,5788,12756,0.809,551
2022-03-18T16:19:59,42.805,6.029,CST-1368DR,4841,5774,12727,0.818,551
2022-03-18T16:23:01,42.805,6.029,CST-1368DR,4841,5791,12765,0.806,551
2022-03-18T16:26:03,42.805,6.029,CST-1368DR,4841,5782,12747,0.812,551
2022-03-18T16:29:04,42.805,6.029,CST-1368DR,4842,5792,12766,0.806,551
2022-03-18T16:32:06,42.805,6.029,CST-1368DR,4842,5795,12772,0.804,551
2022-03-18T16:35:07,42.805,6.029,CST-1368DR,4842,5787,12754,0.810,551
2022-03-18T16:38:09,42.805,6.029,CST-1368DR,4841,5781,12744,0.813,551
2022-03-18T16:41:10,42.805,6.029,CST-1368DR,4841,5787,12757,0.809,551
2022-03-18T16:44:12,42.805,6.029,CST-1368DR,4841,5780,12742,0.814,551
2022-03-18T16:47:14,42.805,6.029,CST-1368DR,4841,5783,12748,0.812,551
2022-03-18T16:50:15,42.805,6.029,CST-1368DR,4841,5783,12748,0.812,551
2022-03-18T16:53:17,42.805,6.029,CST-1368DR,4841,5793,12771,0.804,551